Location: Fort Wayne
(41.1310°N, 85.1290°W)
Time: 11:43:11
(UTC-04:00)

BREEZE-M DEB (TANK) - Visible Passes

Search period start: 24 June 2017 00:00
Search period end: 04 July 2017 00:00
Orbit: 271 x 13270 km, 49.6° (Epoch: 23 June)

Date Brightness Start Highest point End Pass type
(mag) Time Alt. Az. Time Alt. Az. Time Alt. Az.
24 Jun 2.0 04:04:04 46° SSE 04:04:18 48° SE 04:08:39 10° ENE visible
25 Jun 3.1 05:04:33 11° W 05:07:07 53° NNW 05:14:16 10° ENE visible
28 Jun 1.5 03:55:51 75° S 03:55:58 78° SSE 04:00:34 10° ENE visible
29 Jun 3.6 04:56:16 10° W 04:58:59 44° N 05:06:11 10° ENE visible
01 Jul 4.5 02:46:58 13° E 02:46:58 13° E 02:47:31 10° ENE visible
02 Jul 1.7 03:47:20 68° NW 03:47:28 70° NNW 03:52:08 10° ENE visible
03 Jul 4.0 04:47:49 10° WNW 04:50:37 38° N 04:57:52 10° ENE visible
